Content
SEND FEEDBACK

Daily
Averages
Monthly
Summary
Turkey

ADIYAMAN, TURKEY


Home > Middle East > Turkey
Elevation: 2224 feet     Latitude: 37 48N     Longitude: 038 18E

WEATHER
 
SELECT A DAY
Number of Records: 143,230;   Date Range: 7/1/96 - 10/22/14
 
SHARE

PRINT THIS DATA

[ ← Previous Day ]
WEATHER ALMANAC - FEBRUARY 28, 2013
[ Next Day → ]
[ °C ]   °F
Weather ElementAverageHighLow
Temperature43.4 °F50 °F (9:50 am)39.2 °F (6:20 am)
Dewpoint39.5 °F42.8 °F (12:50 am)32 °F (11:50 pm)
Humidity86.8 %100 % (6:20 am)66 % (9:50 am)
Barometer29.82 in29.86 in (12:50 am)29.77 in (4:50 pm)
Wind Speed5.1 mph15 mph (11:50 pm)
Wind Gust19.6 mph (11:50 am)
Weather ElementAverage
Visibility6 mi
Wind DirectionSSW (186.8 °)

Weather ElementTotal
Precipitation---
Heating Degree Days20.4 (Base 65)
Averaged from 47 records on February 28, 2013
WEATHER CONDITIONS BREAKOUT
WIND DIRECTION BREAKOUT
WEATHER BY HOUR - FEBRUARY 28, 2013
[ °C ]   °F
Local TimeTemperatureDewpointHumidityBarometerVisibilityWind DirectionWind SpeedGust SpeedPrecipitationEventsConditions
12:50 AM44.6 °F42.8 °F93 %29.86 in6.2 miSSW (210°)6.9 mphScattered Clouds
1:20 AM46.4 °F41.0 °F81 %29.86 in6.2 miNNE (30°)5.8 mphMostly Cloudy
1:50 AM46.4 °F39.2 °F76 %29.86 in6.2 miNE (40°)4.6 mphMostly Cloudy
2:20 AM44.6 °F37.4 °F76 %29.83 in6.2 miNorth (350°)8.1 mphScattered Clouds
2:50 AM41.0 °F37.4 °F87 %29.83 in6.2 miSouth (170°)5.8 mphScattered Clouds
3:20 AM42.8 °F39.2 °F87 %29.83 in6.2 miSW (230°)6.9 mphScattered Clouds
3:50 AM42.8 °F41.0 °F93 %29.83 in6.2 miSouth (190°)6.9 mphScattered Clouds
4:20 AM42.8 °F39.2 °F87 %29.86 in6.2 miSouth (190°)9.2 mphRainLight Rain Showers
4:50 AM42.8 °F39.2 °F87 %29.83 in6.2 miSouth (190°)10.4 mphRainLight Rain Showers
5:20 AM41.0 °F39.2 °F93 %29.83 in6.2 miSouth (180°)4.6 mphMostly Cloudy
5:50 AM41.0 °F39.2 °F93 %29.83 in6.2 miSW (230°)4.6 mphMostly Cloudy
6:20 AM39.2 °F39.2 °F100 %29.83 in6.2 miEast (80°)3.5 mphMostly Cloudy
6:50 AM42.8 °F41.0 °F93 %29.83 in6.2 miNE (50°)2.3 mphMostly Cloudy
7:20 AM44.6 °F41.0 °F87 %29.83 in6.2 miNNW (340°)2.3 mphMostly Cloudy
7:50 AM44.6 °F41.0 °F87 %29.83 in6.2 miNE (40°)3.5 mphMostly Cloudy
8:20 AM46.4 °F41.0 °F81 %29.86 in6.2 miEast (90°)2.3 mphMostly Cloudy
8:50 AM48.2 °F41.0 °F76 %29.86 in6.2 miVariable2.3 mphMostly Cloudy
9:20 AM48.2 °F39.2 °F71 %29.86 in6.2 miSE (130°)6.9 mphMostly Cloudy
9:50 AM50.0 °F39.2 °F66 %29.83 in6.2 miENE (70°)4.6 mphMostly Cloudy
10:20 AM48.2 °F39.2 °F71 %29.83 in6.2 miVariable2.3 mphMostly Cloudy
10:50 AM48.2 °F39.2 °F71 %29.83 in6.2 miNorth (10°)4.6 mphMostly Cloudy
11:20 AM48.2 °F37.4 °F66 %29.83 in6.2 miNorth (350°)6.9 mphRainLight Rain Showers
11:50 AM42.8 °F41.0 °F93 %29.83 in4.3 miSouth (190°)8.1 mph19.6 mphRainLight Rain Showers
12:20 PM42.8 °F39.2 °F87 %29.83 in2.5 miNW (310°)4.6 mphRainLight Rain Showers
12:50 PM42.8 °F42.8 °F100 %29.80 in5.0 miNW (310°)9.2 mphRainLight Rain
1:20 PM42.8 °F41.0 °F93 %29.80 in6.2 miNNW (340°)10.4 mphRainLight Rain
1:50 PM42.8 °F41.0 °F93 %29.80 in5.0 miNorth (360°)4.6 mphRainLight Rain
2:20 PM44.6 °F39.2 °F81 %29.80 in5.0 miNorth (350°)2.3 mphRainLight Rain
2:50 PM44.6 °F39.2 °F81 %29.80 in6.2 miSW (220°)6.9 mphOvercast
3:20 PM42.8 °F39.2 °F87 %29.80 in6.2 miWSW (250°)6.9 mphRainLight Rain
3:50 PM42.8 °F39.2 °F87 %29.80 in6.2 miSW (230°)4.6 mphRainLight Rain
4:20 PM42.8 °F39.2 °F87 %29.80 in6.2 miSSW (210°)3.5 mphRainLight Rain
4:50 PM42.8 °F39.2 °F87 %29.77 in6.2 miSouth (190°)2.3 mphOvercast
5:20 PM42.8 °F39.2 °F87 %29.77 in6.2 miSSW (210°)2.3 mphOvercast
5:50 PM42.8 °F39.2 °F87 %29.80 in6.2 miSE (140°)2.3 mphOvercast
6:20 PM42.8 °F39.2 °F87 %29.80 in6.2 miCalmOvercast
6:50 PM41.0 °F41.0 °F100 %29.80 in6.2 miSSW (210°)3.5 mphRainLight Rain
7:20 PM41.0 °F41.0 °F100 %29.80 in6.2 miSW (220°)5.8 mphRainLight Rain
7:50 PM41.0 °F41.0 °F100 %29.80 in6.2 miSSW (200°)3.5 mphRainLight Rain
8:20 PM41.0 °F41.0 °F100 %29.80 in6.2 miCalmRainLight Rain
8:50 PM41.0 °F41.0 °F100 %29.80 in6.2 miSSE (160°)2.3 mphRainLight Rain
9:20 PM41.0 °F41.0 °F100 %29.80 in6.2 miSSE (160°)3.5 mphRainLight Rain
9:50 PM41.0 °F41.0 °F100 %29.80 in6.2 miSouth (190°)5.8 mphOvercast
10:20 PM41.0 °F41.0 °F100 %29.80 in6.2 miWest (270°)4.6 mphOvercast
10:50 PM41.0 °F33.8 °F76 %29.80 in6.2 miWest (270°)5.8 mphOvercast
11:20 PM41.0 °F33.8 °F76 %29.80 in6.2 miWNW (300°)4.6 mphOvercast
11:50 PM41.0 °F32.0 °F70 %29.80 in6.2 miNW (320°)15.0 mphMostly Cloudy
Hourly data recorded from LTCP, located miles away from Adiyaman, Turkey







STORIES FROM OUR PARTNERS